�N����,����,�g�[���i���ԁj���x,�g�[�����x,��g�[���i���ցj���x,����
 2004/04/01, 0:00,21.8,54,14.2,14.9
 2004/04/01, 0:15,20.5,56.5,14.1,14.8
 2004/04/01, 0:30,19.8,58,14,14.9
 2004/04/01, 0:45,19.4,58,13.9,14.8
 2004/04/01, 1:00,19,57,13.9,14.8
 2004/04/01, 1:15,18.8,57,13.9,14.8
 2004/04/01, 1:30,18.6,57,13.7,14.7
 2004/04/01, 1:45,18.3,57,13.6,14.6
 2004/04/01, 2:00,18.2,57,13.6,14.6
 2004/04/01, 2:15,17.9,57,13.6,14.5
 2004/04/01, 2:30,17.7,57,13.5,14.5
 2004/04/01, 2:45,17.2,57,13.4,14.5
 2004/04/01, 3:00,16.8,58,13.3,14.4
 2004/04/01, 3:15,16.6,58,13.2,14.4
 2004/04/01, 3:30,16.4,58,13.1,14.3
 2004/04/01, 3:45,16.4,58,13.1,14.3
 2004/04/01, 4:00,16.2,58,13.1,14.2
 2004/04/01, 4:15,15.9,58,12.9,14.1
 2004/04/01, 4:30,15.8,58,12.9,14
 2004/04/01, 4:45,15.8,58.5,12.8,14.1
 2004/04/01, 5:00,15.6,59,12.7,14
 2004/04/01, 5:15,15.4,59,12.6,13.9
 2004/04/01, 5:30,15.3,59,12.5,13.8
 2004/04/01, 5:45,15.1,59,12.5,13.8
 2004/04/01, 6:00,15.1,59,12.4,13.8
 2004/04/01, 6:15,14.9,59,12.4,13.7
 2004/04/01, 6:30,14.8,59,12.3,13.6
 2004/04/01, 6:45,17.4,60.5,12.3,13.8
 2004/04/01, 7:00,18.9,64,12.4,14.7
 2004/04/01, 7:15,19,65.5,12.3,14.6
 2004/04/01, 7:30,19.5,67,12.3,14.4
 2004/04/01, 7:45,19.4,66.5,12.2,14.4
 2004/04/01, 8:00,18.3,70,12.3,14.4
 2004/04/01, 8:15,17.7,73.5,12.3,14.4
 2004/04/01, 8:30,16.9,73,12.3,14.3
 2004/04/01, 8:45,16.9,74.5,12.4,14.2
 2004/04/01, 9:00,16.8,75,12.4,14.2
 2004/04/01, 9:15,16.8,75,12.4,14.1
 2004/04/01, 9:30,16.8,73,12.5,14
 2004/04/01, 9:45,17.6,69.5,12.6,14.1
 2004/04/01,10:00,17.7,69,12.8,14
 2004/04/01,10:15,17.9,69,12.9,14
 2004/04/01,10:30,18.1,67,13.2,14
 2004/04/01,10:45,18.2,68,13.4,13.9
 2004/04/01,11:00,18.4,69,13.5,13.9
 2004/04/01,11:15,18.8,69,13.6,13.9
 2004/04/01,11:30,19,68,13.8,14
 2004/04/01,11:45,19.2,67,14.1,13.9
 2004/04/01,12:00,19.4,67,14.2,13.9
 2004/04/01,12:15,19.5,66.5,14.2,13.9
 2004/04/01,12:30,19.7,65,14.3,13.9
 2004/04/01,12:45,19.9,65,14.4,13.9
 2004/04/01,13:00,20.2,64,14.6,13.9
 2004/04/01,13:15,20.4,63,14.6,13.9
 2004/04/01,13:30,20.6,63,14.7,14
 2004/04/01,13:45,20.6,62,14.9,14
 2004/04/01,14:00,20.7,60,14.9,14
 2004/04/01,14:15,20.8,60,15,14.1
 2004/04/01,14:30,20.8,60,15.1,14
 2004/04/01,14:45,20.8,59,15.1,14.1
 2004/04/01,15:00,20.8,59,15.2,14.2
 2004/04/01,15:15,20.8,59,15.2,14.2
 2004/04/01,15:30,20.8,59,15.3,14.1
 2004/04/01,15:45,20.8,58.5,15.3,14.2
 2004/04/01,16:00,20.7,58,15.4,14.2
 2004/04/01,16:15,20.6,58,15.4,14.2
 2004/04/01,16:30,20.6,58,15.3,14.3
 2004/04/01,16:45,20.5,58,15.3,14.3
 2004/04/01,17:00,20.5,59,15.4,14.3
 2004/04/01,17:15,20.4,59.5,15.3,14.4
 2004/04/01,17:30,20.3,61,15.4,14.3
 2004/04/01,17:45,20.1,62.5,15.4,14.4
 2004/04/01,18:00,20.1,65,15.3,14.5
 2004/04/01,18:15,20,65,15.3,14.4
 2004/04/01,18:30,19.9,65,15.3,14.5
 2004/04/01,18:45,19.8,64,15.4,14.6
 2004/04/01,19:00,19.8,64,15.3,14.6
 2004/04/01,19:15,19.7,63,15.3,14.6
 2004/04/01,19:30,19.6,63,15.3,14.7
 2004/04/01,19:45,19.5,63,15.4,14.7
 2004/04/01,20:00,19.5,63,15.4,14.7
 2004/04/01,20:15,19.5,62.5,15.4,14.8
 2004/04/01,20:30,19.4,62,15.3,14.8
 2004/04/01,20:45,19.3,62,15.2,14.9
 2004/04/01,21:00,19.3,62,15.2,14.8
 2004/04/01,21:15,19.2,62,15.2,14.9
 2004/04/01,21:30,19.2,62,15.2,14.9
 2004/04/01,21:45,19,62.5,15.2,14.9
 2004/04/01,22:00,20,62,15.3,15.4
 2004/04/01,22:15,20.2,55,15.2,15.4
 2004/04/01,22:30,20.9,54,15.2,15.5
 2004/04/01,22:45,22,56,15.3,15.5
 2004/04/01,23:00,22.6,57,15.2,15.4
 2004/04/01,23:15,22,58,15.2,15.5
 2004/04/01,23:30,21.4,60,15.2,15.5
 2004/04/01,23:45,21,60,15.2,15.5
 2004/04/02, 0:00,20.6,60,15.2,15.4
 2004/04/02, 0:15,20.5,59.5,15.2,15.5
 2004/04/02, 0:30,20.2,59,15.3,15.4
 2004/04/02, 0:45,20,59.5,15.1,15.4
 2004/04/02, 1:00,19.9,59,15.1,15.5
 2004/04/02, 1:15,19.8,59.5,15.1,15.5
 2004/04/02, 1:30,19.6,59,15,15.5
 2004/04/02, 1:45,19.5,59,15.1,15.5
 2004/04/02, 2:00,19.4,59,15,15.5
 2004/04/02, 2:15,19.2,60,14.9,15.6
 2004/04/02, 2:30,19.1,59,14.9,15.6
 2004/04/02, 2:45,19,60,14.9,15.6
 2004/04/02, 3:00,18.9,60,14.9,15.6
 2004/04/02, 3:15,18.8,60,14.9,15.6
 2004/04/02, 3:30,18.7,60,14.7,15.6
 2004/04/02, 3:45,18.5,60,14.8,15.5
 2004/04/02, 4:00,18.5,60,14.7,15.5
 2004/04/02, 4:15,18.4,60,14.7,15.6
 2004/04/02, 4:30,18.4,59,14.7,15.6
 2004/04/02, 4:45,18.2,59,14.6,15.5
 2004/04/02, 5:00,18.1,60,14.6,15.5
 2004/04/02, 5:15,18,60,14.6,15.4
 2004/04/02, 5:30,17.9,60,14.6,15.4
 2004/04/02, 5:45,17.9,60,14.6,15.2
 2004/04/02, 6:00,17.9,62,14.4,14.9
 2004/04/02, 6:15,17.9,64.5,14.4,14.9
 2004/04/02, 6:30,17.8,63,14.4,14.9
 2004/04/02, 6:45,19.2,64.5,14.4,14.9
 2004/04/02, 7:00,20.6,66,14.3,15.2
 2004/04/02, 7:15,20.7,65.5,14.3,15.1
 2004/04/02, 7:30,21,64,14.4,15.2
 2004/04/02, 7:45,21,63,14.3,15
 2004/04/02, 8:00,20,65,14.3,15
 2004/04/02, 8:15,19.8,64.5,14.4,15
 2004/04/02, 8:30,20.6,65,14.4,15
 2004/04/02, 8:45,21.4,61,14.5,14.9
 2004/04/02, 9:00,20.8,56,14.6,14.9
 2004/04/02, 9:15,19.6,62,14.6,14.8
 2004/04/02, 9:30,19.2,62,14.7,14.8
 2004/04/02, 9:45,19.1,62,14.8,14.9
 2004/04/02,10:00,19.1,62,14.8,14.8
 2004/04/02,10:15,19.2,61.5,15.1,14.9
 2004/04/02,10:30,19.3,60,15.3,14.9
 2004/04/02,10:45,19.2,60,15.4,14.8
 2004/04/02,11:00,19.3,59,15.4,14.9
 2004/04/02,11:15,19.4,59.5,15.4,14.9
 2004/04/02,11:30,19.5,59,15.6,14.9
 2004/04/02,11:45,19.5,59,15.8,14.9
 2004/04/02,12:00,19.7,58,15.9,15
 2004/04/02,12:15,19.6,58,15.9,14.9
 2004/04/02,12:30,19.6,58,15.9,15
 2004/04/02,12:45,19.7,57.5,16,15
 2004/04/02,13:00,19.7,57,16,15
 2004/04/02,13:15,19.7,57,16.1,15.1
 2004/04/02,13:30,19.8,56,16.2,15.1
 2004/04/02,13:45,20,56,16.3,15.2
 2004/04/02,14:00,20,56,16.4,15.2
 2004/04/02,14:15,20,56,16.5,15.2
 2004/04/02,14:30,20.1,56,16.6,15.3
 2004/04/02,14:45,20,55,16.6,15.4
 2004/04/02,15:00,20,55,16.6,15.3
 2004/04/02,15:15,20,55,16.7,15.4
 2004/04/02,15:30,20.1,55,16.7,15.5
 2004/04/02,15:45,20.1,55,16.8,15.5
 2004/04/02,16:00,20.1,55,16.8,15.5
 2004/04/02,16:15,20,54.5,16.8,15.6
 2004/04/02,16:30,20,54,16.8,15.6
 2004/04/02,16:45,20,54,16.8,15.6
 2004/04/02,17:00,19.9,54,16.8,15.7
 2004/04/02,17:15,19.8,54,16.7,15.8
 2004/04/02,17:30,19.8,54,16.7,15.9
 2004/04/02,17:45,19.8,54.5,16.6,15.9
 2004/04/02,18:00,19.7,55,16.6,15.9
 2004/04/02,18:15,19.6,56,16.6,16
 2004/04/02,18:30,19.6,56,16.5,16
 2004/04/02,18:45,19.5,56.5,16.5,16
 2004/04/02,19:00,19.4,57,16.5,16.1
 2004/04/02,19:15,19.4,57.5,16.5,16.1
 2004/04/02,19:30,19.3,58,16.4,16.2
 2004/04/02,19:45,19.6,60,16.4,16.2
 2004/04/02,20:00,19.8,64,16.4,16.1
 2004/04/02,20:15,19.7,61.5,16.4,16.1
 2004/04/02,20:30,19.3,60,16.3,16.1
 2004/04/02,20:45,19.2,60,16.3,16.1
 2004/04/02,21:00,19.1,60,16.2,16.2
 2004/04/02,21:15,19.1,59.5,16.2,16.2
 2004/04/02,21:30,19.6,60,16.1,16.2
 2004/04/02,21:45,19.3,61.5,16.1,16.2
 2004/04/02,22:00,19.2,62,16.1,16.2
 2004/04/02,22:15,20.1,63.5,16,16.2
 2004/04/02,22:30,21.2,63,16,16.3
 2004/04/02,22:45,21.5,62,15.9,16.3
 2004/04/02,23:00,22,62,15.9,16.3
 2004/04/02,23:15,20.9,62,15.9,16.3
 2004/04/02,23:30,20.6,63,15.9,16.3
 2004/04/02,23:45,20.5,62.5,15.8,16.4
 2004/04/03, 0:00,20.2,62,15.7,16.3
 2004/04/03, 0:15,19.8,63,15.7,16
 2004/04/03, 0:30,19.7,63,15.6,15.7
 2004/04/03, 0:45,19.5,62.5,15.6,15.8
 2004/04/03, 1:00,19.3,63,15.5,15.8
 2004/04/03, 1:15,19.1,62,15.5,15.8
 2004/04/03, 1:30,19,62,15.4,15.7
 2004/04/03, 1:45,18.9,61.5,15.2,15.8
 2004/04/03, 2:00,18.7,61,15.2,15.8
 2004/04/03, 2:15,18.5,61,15.2,15.7
 2004/04/03, 2:30,18.5,61,15,15.7
 2004/04/03, 2:45,18.4,61,15.1,15.6
 2004/04/03, 3:00,18.3,61,14.9,15.6
 2004/04/03, 3:15,18.1,61,14.9,15.6
 2004/04/03, 3:30,18,61,14.8,15.6
 2004/04/03, 3:45,17.9,61,14.8,15.6
 2004/04/03, 4:00,17.8,61,14.7,15.5
 2004/04/03, 4:15,17.6,61,14.6,15.6
 2004/04/03, 4:30,17.2,64,14.5,15.5
 2004/04/03, 4:45,16.9,62,14.6,15.5
 2004/04/03, 5:00,16.7,62,14.5,15.4
 2004/04/03, 5:15,16.6,62,14.4,15.3
 2004/04/03, 5:30,16.5,62,14.3,15.3
 2004/04/03, 5:45,16.5,62,14.4,15.3
 2004/04/03, 6:00,16.4,62,14.3,15.2
 2004/04/03, 6:15,16.4,62,14.3,15.2
 2004/04/03, 6:30,16.4,62,14.2,15.2
 2004/04/03, 6:45,16.4,62,14.1,15.1
 2004/04/03, 7:00,16.3,62,14.2,15.1
 2004/04/03, 7:15,16.3,62,14.1,15
 2004/04/03, 7:30,16.3,62,14.2,15.4
 2004/04/03, 7:45,16.4,62,14.2,15.3
 2004/04/03, 8:00,18.3,63,14.1,15.2
 2004/04/03, 8:15,18.9,62,14.2,15.1
 2004/04/03, 8:30,19,58,14.2,15.1
 2004/04/03, 8:45,20.1,60.5,14.4,15.1
 2004/04/03, 9:00,20.8,61,14.5,15.2
 2004/04/03, 9:15,20.5,60.5,14.5,15.4
 2004/04/03, 9:30,20.4,61,14.6,15.6
 2004/04/03, 9:45,20.5,60,14.6,15.6
 2004/04/03,10:00,20.4,60,14.8,15.6
 2004/04/03,10:15,20.5,61,14.9,15.6
 2004/04/03,10:30,20.7,60,15.1,15.5
 2004/04/03,10:45,21,58.5,15.2,15.5
 2004/04/03,11:00,21.1,55,15.4,15.5
 2004/04/03,11:15,21.1,54,15.6,15.5
 2004/04/03,11:30,21.2,53,15.7,15.5
 2004/04/03,11:45,21.4,53.5,15.7,15.4
 2004/04/03,12:00,21.7,54,15.9,15.3
 2004/04/03,12:15,21.9,53.5,15.9,15.2
 2004/04/03,12:30,22,53,16,15.3
 2004/04/03,12:45,22.1,53,16,15.3
 2004/04/03,13:00,22.3,52,16.1,15.4
 2004/04/03,13:15,22.5,51.5,16.1,15.4
 2004/04/03,13:30,22.6,52,16.2,15.4
 2004/04/03,13:45,22.6,52,16.2,15.4
 2004/04/03,14:00,22.7,53,16.3,15.4
 2004/04/03,14:15,22.7,51.5,16.2,15.4
 2004/04/03,14:30,22.5,51,16.3,15.5
 2004/04/03,14:45,22.4,50.5,16.3,15.7
 2004/04/03,15:00,22.3,50,16.3,15.8
 2004/04/03,15:15,22.4,52,16.2,15.7
 2004/04/03,15:30,22.4,52,16.3,15.8
 2004/04/03,15:45,22.4,53,16.2,15.8
 2004/04/03,16:00,22.4,53,16.1,15.8
 2004/04/03,16:15,22.4,53,16.2,15.9
 2004/04/03,16:30,22.4,53,16.2,15.9
 2004/04/03,16:45,22.4,53,16.1,15.9
 2004/04/03,17:00,22.5,53,16.2,16
 2004/04/03,17:15,22.5,53.5,16.2,16
 2004/04/03,17:30,22.5,54,16,15.7
 2004/04/03,17:45,22.5,53.5,16,15.8
 2004/04/03,18:00,22.3,52,16,15.8
 2004/04/03,18:15,22,49.5,15.9,15.9
 2004/04/03,18:30,22.1,52,16,15.8
 2004/04/03,18:45,22.1,52.5,15.9,15.9
 2004/04/03,19:00,22.1,53,15.9,15.9
 2004/04/03,19:15,22.1,54,15.9,15.9
 2004/04/03,19:30,22.2,54,15.9,15.9
 2004/04/03,19:45,22.1,61,15.9,15.9
 2004/04/03,20:00,21.6,72,15.8,16
 2004/04/03,20:15,21.6,72.5,15.9,16
 2004/04/03,20:30,21.7,73,15.7,16
 2004/04/03,20:45,21.5,74,15.8,15.8
 2004/04/03,21:00,21.6,74,15.7,15.8
 2004/04/03,21:15,21.6,73.5,15.8,15.8
 2004/04/03,21:30,21.7,73,15.7,15.8
 2004/04/03,21:45,21.5,73,15.8,15.9
 2004/04/03,22:00,21.5,73,15.7,15.9
 2004/04/03,22:15,21.5,72,15.6,15.9
 2004/04/03,22:30,21.4,72,15.6,15.8
 2004/04/03,22:45,21.4,71.5,15.6,15.8
 2004/04/03,23:00,21.4,72,15.5,15.9
 2004/04/03,23:15,21.3,72,15.4,15.9
 2004/04/03,23:30,21.2,72,15.5,15.8
 2004/04/03,23:45,21.2,71,15.4,15.9
 2004/04/04, 0:00,21.1,71,15.4,15.8
 2004/04/04, 0:15,21,69,15.3,15.9
 2004/04/04, 0:30,20.8,69,15.2,15.8
 2004/04/04, 0:45,20.6,68.5,15.2,15.7
 2004/04/04, 1:00,20.6,68,15.1,15.6
 2004/04/04, 1:15,20.5,67.5,15.1,15.6
 2004/04/04, 1:30,20.3,67,15,15.5
 2004/04/04, 1:45,20.1,67,14.9,15.5
 2004/04/04, 2:00,19.9,66,14.9,15.5
 2004/04/04, 2:15,19.8,66,14.8,15.4
 2004/04/04, 2:30,19.6,66,14.8,15.5
 2004/04/04, 2:45,19.5,66,14.7,15.4
 2004/04/04, 3:00,19.3,66,14.7,15.3
 2004/04/04, 3:15,19.1,65,14.6,15.3
 2004/04/04, 3:30,19,65,14.5,15.3
 2004/04/04, 3:45,18.9,65,14.4,15.2
 2004/04/04, 4:00,18.8,65,14.4,15.2
 2004/04/04, 4:15,18.6,65,14.4,15.1
 2004/04/04, 4:30,18.5,65,14.4,15.2
 2004/04/04, 4:45,18.5,65,14.3,15.1
 2004/04/04, 5:00,18.4,65,14.2,15
 2004/04/04, 5:15,18.2,64,14.2,15
 2004/04/04, 5:30,18.2,64,14.2,14.9
 2004/04/04, 5:45,18,64,14.1,14.9
 2004/04/04, 6:00,17.9,64,14.1,14.9
 2004/04/04, 6:15,17.9,64,13.9,14.8
 2004/04/04, 6:30,17.7,64,14,14.9
 2004/04/04, 6:45,17.6,64,13.9,14.8
 2004/04/04, 7:00,17.6,64,13.9,14.5
 2004/04/04, 7:15,16.9,64.5,13.8,14.7
 2004/04/04, 7:30,16.8,64,13.7,14.6
 2004/04/04, 7:45,16.7,64.5,13.7,14.6
 2004/04/04, 8:00,16.7,64,13.7,14.6
 2004/04/04, 8:15,16.6,64,13.6,14.5
 2004/04/04, 8:30,16.5,64,13.5,14.5
 2004/04/04, 8:45,16.5,64,13.6,14.5
 2004/04/04, 9:00,16.4,64,13.5,14.5
 2004/04/04, 9:15,16.4,64,13.5,14.4
 2004/04/04, 9:30,16.3,64,13.5,14.4
 2004/04/04, 9:45,16.5,66.5,12.9,14.4
 2004/04/04,10:00,17.8,67,13.2,15.2
 2004/04/04,10:15,18.6,74.5,13.3,15.1
 2004/04/04,10:30,19.3,74,13.3,15.1
 2004/04/04,10:45,19.4,68,13.2,14.9
 2004/04/04,11:00,19.2,63,13.2,14.8
 2004/04/04,11:15,19.2,60,13.1,15.4
 2004/04/04,11:30,19.3,59,13.1,15.5
 2004/04/04,11:45,19,59.5,13.1,15.6
 2004/04/04,12:00,18.5,61,13.1,15.5
 2004/04/04,12:15,18.3,62,13.1,15.5
 2004/04/04,12:30,18.1,62,13.1,15.3
 2004/04/04,12:45,18,62,13,15.1
 2004/04/04,13:00,17.8,62,13,14.7
 2004/04/04,13:15,17.6,62,12.5,14.6
 2004/04/04,13:30,16.8,61,12.1,14.6
 2004/04/04,13:45,18.4,64,12.8,14.6
 2004/04/04,14:00,19.2,66,12.8,14.5
 2004/04/04,14:15,19.5,63.5,12.8,14.5
 2004/04/04,14:30,19.1,57,12.7,14.4
 2004/04/04,14:45,19.9,62.5,12.7,14.4
 2004/04/04,15:00,20.3,63,12.7,14.3
 2004/04/04,15:15,20.6,63,12.7,14.3
 2004/04/04,15:30,20.8,63,12.7,14.3
 2004/04/04,15:45,21.2,62,12.7,14.2
 2004/04/04,16:00,21.6,61,12.7,14.2
 2004/04/04,16:15,21.4,60,12.7,14.4
 2004/04/04,16:30,20.9,60,12.6,14.5
 2004/04/04,16:45,20.7,59,12.6,14.4
 2004/04/04,17:00,20.5,59,12.6,14.4
 2004/04/04,17:15,20.4,58,12.6,14.3
 2004/04/04,17:30,20.1,57,12.6,14.3
 2004/04/04,17:45,19.7,56.5,12.5,14.3
 2004/04/04,18:00,19.6,55,12.5,14.3
 2004/04/04,18:15,19.6,55.5,12.4,14.9
 2004/04/04,18:30,19.6,56,12.4,15
 2004/04/04,18:45,19.8,59,12.4,15
 2004/04/04,19:00,20,61,12.4,15.4
 2004/04/04,19:15,20,62.5,12.4,15.2
 2004/04/04,19:30,20.2,63,12.4,15.5
 2004/04/04,19:45,20.2,62,12.3,15.7
 2004/04/04,20:00,20.2,62,12.3,15.6
 2004/04/04,20:15,20.1,61.5,12.3,15.4
 2004/04/04,20:30,20,61,12.3,15.3
 2004/04/04,20:45,19.9,60,12.3,15.3
 2004/04/04,21:00,19.8,59,12.2,15.2
 2004/04/04,21:15,19.6,58,12.2,15
 2004/04/04,21:30,19.6,59,12.2,15.3
 2004/04/04,21:45,19.6,59,12.2,15.2
 2004/04/04,22:00,19.5,59,12.1,15.1
 2004/04/04,22:15,19.5,59,12.1,15.1
 2004/04/04,22:30,19.4,59,12.1,15
 2004/04/04,22:45,19.2,58.5,12.1,14.9
 2004/04/04,23:00,19.4,60,12,14.8
 2004/04/04,23:15,20.1,59.5,12,15.3
 2004/04/04,23:30,20.5,60,12,15.2
 2004/04/04,23:45,20.8,59.5,12,14.9
 2004/04/05, 0:00,21,59,11.9,14.8
 2004/04/05, 0:15,19.9,55.5,11.9,14.6
 2004/04/05, 0:30,19.6,57,11.9,14.6
 2004/04/05, 0:45,19.3,57,11.8,14.5
 2004/04/05, 1:00,19.1,57,11.8,14.5
 2004/04/05, 1:15,18.8,57.5,11.7,14.4
 2004/04/05, 1:30,18.5,57,11.7,14.3
 2004/04/05, 1:45,18.4,57,11.7,14.2
 2004/04/05, 2:00,18.1,57,11.6,14.2
 2004/04/05, 2:15,17.9,57,11.6,14.1
 2004/04/05, 2:30,17.7,57,11.5,13.9
 2004/04/05, 2:45,17.2,58.5,11.6,13.9
 2004/04/05, 3:00,16.7,58,11.5,13.8
 2004/04/05, 3:15,16.5,58,11.4,13.8
 2004/04/05, 3:30,16.4,58,11.4,13.7
 2004/04/05, 3:45,16.2,58,11.4,13.6
 2004/04/05, 4:00,16.1,58,11.3,13.6
 2004/04/05, 4:15,15.9,58,11.3,13.6
 2004/04/05, 4:30,15.8,58,11.2,13.5
 2004/04/05, 4:45,15.6,58,11.1,13.4
 2004/04/05, 5:00,15.5,58,11.1,13.4
 2004/04/05, 5:15,15.4,58,11.1,13.4
 2004/04/05, 5:30,15.2,58,11.1,13.3
 2004/04/05, 5:45,15.1,58,11,13.6
 2004/04/05, 6:00,14.9,58,11,13.5
 2004/04/05, 6:15,14.9,58,10.9,13.4
 2004/04/05, 6:30,14.9,61,10.9,13.4
 2004/04/05, 6:45,16,69,10.9,13.5
 2004/04/05, 7:00,16.8,76,11,14.7
 2004/04/05, 7:15,17.5,71.5,11,14.5
 2004/04/05, 7:30,17.7,78,11,14.4
 2004/04/05, 7:45,17.7,74,11.1,14.2
 2004/04/05, 8:00,16.8,64,11,14.1
 2004/04/05, 8:15,16.9,77,11.1,14.1
 2004/04/05, 8:30,17.6,77,11.1,14
 2004/04/05, 8:45,17.5,77.5,11.1,14.1
 2004/04/05, 9:00,16.7,62,11.2,14.1
 2004/04/05, 9:15,16.5,62,11.3,14.1
 2004/04/05, 9:30,16.3,61,11.3,14
 2004/04/05, 9:45,16.1,61,11.4,13.9
 2004/04/05,10:00,16.1,61,11.5,13.9
 2004/04/05,10:15,16.1,61.5,11.8,13.8
 2004/04/05,10:30,16.1,62,11.9,13.8
 2004/04/05,10:45,16.2,62,12.1,13.8
 2004/04/05,11:00,16.3,62,12.3,13.7
 2004/04/05,11:15,16.4,62,12.4,13.8
 2004/04/05,11:30,16.4,62,12.6,13.7
 2004/04/05,11:45,16.5,62,12.8,13.8
 2004/04/05,12:00,16.6,62,12.9,13.7
 2004/04/05,12:15,16.7,62,12.9,13.7
 2004/04/05,12:30,16.8,62,13.1,13.7
 2004/04/05,12:45,16.9,62,13.1,13.8
 2004/04/05,13:00,16.9,62,13.3,13.7
 2004/04/05,13:15,17.6,62,13.4,13.8
 2004/04/05,13:30,17.7,62,13.4,13.8
 2004/04/05,13:45,17.8,62,13.6,13.8
 2004/04/05,14:00,17.8,62,13.6,13.8
 2004/04/05,14:15,17.9,62,13.7,13.8
 2004/04/05,14:30,17.9,62,13.8,13.8
 2004/04/05,14:45,18,61,13.8,13.9
 2004/04/05,15:00,18,61,13.9,13.9
 2004/04/05,15:15,18,61,14,13.9
 2004/04/05,15:30,18,61,14,13.9
 2004/04/05,15:45,18,61,14,13.9
 2004/04/05,16:00,18,61,14.1,13.9
 2004/04/05,16:15,18,61,14.1,13.9
 2004/04/05,16:30,18.1,61,14.1,14
 2004/04/05,16:45,18,61,14.1,14
 2004/04/05,17:00,18,61,14.1,14
 2004/04/05,17:15,18,62,14.1,14.1
 2004/04/05,17:30,17.9,63,14.1,14.1
 2004/04/05,17:45,17.9,64.5,14.1,14.1
 2004/04/05,18:00,17.8,65,14.1,14.2
 2004/04/05,18:15,17.8,67,14.1,14.1
 2004/04/05,18:30,17.7,69,14.1,14.2
 2004/04/05,18:45,17.6,69,14.1,14.2
 2004/04/05,19:00,16.9,71,14,14.2
 2004/04/05,19:15,16.9,70,14,14.2
 2004/04/05,19:30,16.8,70,13.9,14.3
 2004/04/05,19:45,16.8,70.5,13.9,14.4
 2004/04/05,20:00,16.7,70,13.8,14.3
 2004/04/05,20:15,16.6,70,13.8,14.4
 2004/04/05,20:30,16.4,70,13.8,14.4
 2004/04/05,20:45,16.4,69.5,13.8,14.4
 2004/04/05,21:00,16.4,69,13.8,14.4
 2004/04/05,21:15,16.4,69,13.8,14.5
 2004/04/05,21:30,17.6,70,13.8,14.4
 2004/04/05,21:45,18.1,70.5,13.8,14.4
 2004/04/05,22:00,18.5,71,13.7,14.5
 2004/04/05,22:15,18.9,70,13.7,14.4
 2004/04/05,22:30,19.3,70,13.6,14.5
 2004/04/05,22:45,19.7,69,13.5,14.7
 2004/04/05,23:00,20,68,13.5,14.7
 2004/04/05,23:15,20.2,67.5,13.4,14.7
 2004/04/05,23:30,20.2,65,13.3,14.7
 2004/04/05,23:45,20.3,66,13.3,14.5
 2004/04/06, 0:00,20.5,65,13.3,14.6
 2004/04/06, 0:15,20.6,65,13.2,14.6
 2004/04/06, 0:30,20.7,65,13.2,14.6
 2004/04/06, 0:45,20.7,65,13.1,14.5
 2004/04/06, 1:00,20.8,64,13,14.4
 2004/04/06, 1:15,20.8,64,13,14.4
 2004/04/06, 1:30,20.9,64,13,14.4
 2004/04/06, 1:45,21,63,12.9,14.4
 2004/04/06, 2:00,21,63,12.9,14.3
 2004/04/06, 2:15,21,62,12.9,14.2
 2004/04/06, 2:30,20.4,62,12.8,14.2
 2004/04/06, 2:45,19.9,62,12.7,14.1
 2004/04/06, 3:00,19.5,62,12.7,14.1
 2004/04/06, 3:15,19.1,62,12.6,14.1
 2004/04/06, 3:30,18.8,62,12.6,14.1
 2004/04/06, 3:45,18.5,62,12.5,14.1
 2004/04/06, 4:00,18.4,62,12.4,14
 2004/04/06, 4:15,18.1,61.5,12.4,14
 2004/04/06, 4:30,18,61,12.3,13.9
 2004/04/06, 4:45,17.7,62,12.3,13.9
 2004/04/06, 5:00,16.9,62,12.2,13.9
 2004/04/06, 5:15,16.8,62,12.2,13.8
 2004/04/06, 5:30,16.5,62,12.2,13.7
 2004/04/06, 5:45,16.4,62.5,12.1,13.8
 2004/04/06, 6:00,16.3,62,12,13.7
 2004/04/06, 6:15,16.1,63,12,13.6
 2004/04/06, 6:30,16,63,12,13.5
 2004/04/06, 6:45,16.4,68,12,13.6
 2004/04/06, 7:00,18.1,75,12,14.3
 2004/04/06, 7:15,18.5,70,11.9,14.2
 2004/04/06, 7:30,18.9,68,11.9,14.1
 2004/04/06, 7:45,19.1,67,12,14.2
 2004/04/06, 8:00,19.5,66,12,14.3
 2004/04/06, 8:15,19.2,66,12.1,14.3
 2004/04/06, 8:30,20,66,12.1,14.4
 2004/04/06, 8:45,20.5,65,12.1,14.4
 2004/04/06, 9:00,20.6,57,12.3,14.2
 2004/04/06, 9:15,21.1,61,12.4,14.3
 2004/04/06, 9:30,21.4,59,12.5,14.3
 2004/04/06, 9:45,20.5,57.5,12.6,14.5
 2004/04/06,10:00,20.1,59,12.8,14.5
 2004/04/06,10:15,19.9,59.5,13,14.4
 2004/04/06,10:30,-9.9,-9.9,-9.9,14.4
 2004/04/06,10:45,-9.9,-9.9,-9.9,14.4
 2004/04/06,11:00,-9.9,-9.9,-9.9,14.4
 2004/04/06,11:15,-9.9,-9.9,-9.9,14.4
 2004/04/06,11:30,-9.9,-9.9,-9.9,14.5
 2004/04/06,11:45,-9.9,-9.9,-9.9,14.5
 2004/04/06,12:00,-9.9,-9.9,-9.9,14.4
 2004/04/06,12:15,-9.9,-9.9,-9.9,14.4
 2004/04/06,12:30,-9.9,-9.9,-9.9,14.4
 2004/04/06,12:45,-9.9,-9.9,-9.9,14.4
 2004/04/06,13:00,-9.9,-9.9,-9.9,14.5
 2004/04/06,13:15,-9.9,-9.9,-9.9,14.5
 2004/04/06,13:30,-9.9,-9.9,-9.9,14.5
 2004/04/06,13:45,-9.9,-9.9,-9.9,14.5
 2004/04/06,14:00,-9.9,-9.9,-9.9,14.6
 2004/04/06,14:15,-9.9,-9.9,-9.9,14.6
 2004/04/06,14:30,-9.9,-9.9,-9.9,14.7
 2004/04/06,14:45,-9.9,-9.9,-9.9,14.7
 2004/04/06,15:00,-9.9,-9.9,-9.9,14.7
 2004/04/06,15:15,-9.9,-9.9,-9.9,14.7
 2004/04/06,15:30,-9.9,-9.9,-9.9,14.7
 2004/04/06,15:45,-9.9,-9.9,-9.9,14.8
 2004/04/06,16:00,-9.9,-9.9,-9.9,14.8
 2004/04/06,16:15,-9.9,-9.9,-9.9,14.8
 2004/04/06,16:30,-9.9,-9.9,-9.9,14.9
 2004/04/06,16:45,-9.9,-9.9,-9.9,14.9
 2004/04/06,17:00,-9.9,-9.9,-9.9,14.9
 2004/04/06,17:15,-9.9,-9.9,-9.9,15
 2004/04/06,17:30,-9.9,-9.9,-9.9,15.1
 2004/04/06,17:45,-9.9,-9.9,-9.9,15
 2004/04/06,18:00,-9.9,-9.9,-9.9,15.1
 2004/04/06,18:15,-9.9,-9.9,-9.9,15.2
 2004/04/06,18:30,-9.9,-9.9,-9.9,15.2
 2004/04/06,18:45,-9.9,-9.9,-9.9,15.3
 2004/04/06,19:00,-9.9,-9.9,-9.9,15.3
 2004/04/06,19:15,-9.9,-9.9,-9.9,15.4
 2004/04/06,19:30,-9.9,-9.9,-9.9,15.5
 2004/04/06,19:45,-9.9,-9.9,-9.9,15.4
 2004/04/06,20:00,-9.9,-9.9,-9.9,15.5
 2004/04/06,20:15,-9.9,-9.9,-9.9,15.6
 2004/04/06,20:30,-9.9,-9.9,-9.9,15.6
 2004/04/06,20:45,-9.9,-9.9,-9.9,15.6
 2004/04/06,21:00,-9.9,-9.9,-9.9,15.7
 2004/04/06,21:15,-9.9,-9.9,-9.9,15.8
 2004/04/06,21:30,-9.9,-9.9,-9.9,15.8
 2004/04/06,21:45,-9.9,-9.9,-9.9,15.8
 2004/04/06,22:00,-9.9,-9.9,-9.9,15.8
 2004/04/06,22:15,-9.9,-9.9,-9.9,15.9
 2004/04/06,22:30,-9.9,-9.9,-9.9,15.9
 2004/04/06,22:45,-9.9,-9.9,-9.9,15.9
 2004/04/06,23:00,-9.9,-9.9,-9.9,15.9
 2004/04/06,23:15,-9.9,-9.9,-9.9,15.6
 2004/04/06,23:30,-9.9,-9.9,-9.9,15.7
 2004/04/06,23:45,-9.9,-9.9,-9.9,15.8
 2004/04/07, 0:00,-9.9,-9.9,-9.9,15.7
 2004/04/07, 0:15,-9.9,-9.9,-9.9,15.6
 2004/04/07, 0:30,-9.9,-9.9,-9.9,15.7
 2004/04/07, 0:45,-9.9,-9.9,-9.9,15.7
 2004/04/07, 1:00,-9.9,-9.9,-9.9,15.8
 2004/04/07, 1:15,-9.9,-9.9,-9.9,15.7
 2004/04/07, 1:30,-9.9,-9.9,-9.9,15.8
 2004/04/07, 1:45,-9.9,-9.9,-9.9,15.8
 2004/04/07, 2:00,-9.9,-9.9,-9.9,15.8
 2004/04/07, 2:15,-9.9,-9.9,-9.9,15.5
 2004/04/07, 2:30,-9.9,-9.9,-9.9,15.5
 2004/04/07, 2:45,-9.9,-9.9,-9.9,15.6
 2004/04/07, 3:00,-9.9,-9.9,-9.9,15.5
 2004/04/07, 3:15,-9.9,-9.9,-9.9,15.6
 2004/04/07, 3:30,-9.9,-9.9,-9.9,15.5
 2004/04/07, 3:45,-9.9,-9.9,-9.9,15.3
 2004/04/07, 4:00,-9.9,-9.9,-9.9,15.4
 2004/04/07, 4:15,-9.9,-9.9,-9.9,15.4
 2004/04/07, 4:30,-9.9,-9.9,-9.9,15.4
 2004/04/07, 4:45,-9.9,-9.9,-9.9,15.4
 2004/04/07, 5:00,-9.9,-9.9,-9.9,15.3
 2004/04/07, 5:15,-9.9,-9.9,-9.9,15.4
 2004/04/07, 5:30,-9.9,-9.9,-9.9,15.3
 2004/04/07, 5:45,-9.9,-9.9,-9.9,15.3
 2004/04/07, 6:00,-9.9,-9.9,-9.9,15.3
 2004/04/07, 6:15,-9.9,-9.9,-9.9,15.2
 2004/04/07, 6:30,-9.9,-9.9,-9.9,15.3
 2004/04/07, 6:45,-9.9,-9.9,-9.9,15.2
 2004/04/07, 7:00,-9.9,-9.9,-9.9,15.3
 2004/04/07, 7:15,-9.9,-9.9,-9.9,15.2
 2004/04/07, 7:30,-9.9,-9.9,-9.9,15.2
 2004/04/07, 7:45,-9.9,-9.9,-9.9,15.1
 2004/04/07, 8:00,-9.9,-9.9,-9.9,15.2
 2004/04/07, 8:15,-9.9,-9.9,-9.9,15.1
 2004/04/07, 8:30,-9.9,-9.9,-9.9,15.3
 2004/04/07, 8:45,-9.9,-9.9,-9.9,15.2
 2004/04/07, 9:00,-9.9,-9.9,-9.9,15.3
 2004/04/07, 9:15,-9.9,-9.9,-9.9,15.3
 2004/04/07, 9:30,-9.9,-9.9,-9.9,15.3
 2004/04/07, 9:45,-9.9,-9.9,-9.9,15.3
 2004/04/07,10:00,-9.9,-9.9,-9.9,15.3
 2004/04/07,10:15,-9.9,-9.9,-9.9,15.3
 2004/04/07,10:30,-9.9,-9.9,-9.9,15.4
 2004/04/07,10:45,-9.9,-9.9,-9.9,15.4
 2004/04/07,11:00,-9.9,-9.9,-9.9,15.3
 2004/04/07,11:15,-9.9,-9.9,-9.9,15.3
 2004/04/07,11:30,-9.9,-9.9,-9.9,15.4
 2004/04/07,11:45,-9.9,-9.9,-9.9,15.4
 2004/04/07,12:00,-9.9,-9.9,-9.9,15.4
 2004/04/07,12:15,-9.9,-9.9,-9.9,15.4
 2004/04/07,12:30,-9.9,-9.9,-9.9,15.5
 2004/04/07,12:45,-9.9,-9.9,-9.9,15.4
 2004/04/07,13:00,-9.9,-9.9,-9.9,15.5
 2004/04/07,13:15,-9.9,-9.9,-9.9,15.6
 2004/04/07,13:30,-9.9,-9.9,-9.9,15.6
 2004/04/07,13:45,-9.9,-9.9,-9.9,15.6
 2004/04/07,14:00,-9.9,-9.9,-9.9,15.6
 2004/04/07,14:15,-9.9,-9.9,-9.9,15.7
 2004/04/07,14:30,-9.9,-9.9,-9.9,15.7
 2004/04/07,14:45,-9.9,-9.9,-9.9,15.8
 2004/04/07,15:00,-9.9,-9.9,-9.9,15.8
 2004/04/07,15:15,-9.9,-9.9,-9.9,15.9
 2004/04/07,15:30,-9.9,-9.9,-9.9,15.9
 2004/04/07,15:45,-9.9,-9.9,-9.9,16
 2004/04/07,16:00,-9.9,-9.9,-9.9,16
 2004/04/07,16:15,-9.9,-9.9,-9.9,16
 2004/04/07,16:30,-9.9,-9.9,-9.9,16.1
 2004/04/07,16:45,-9.9,-9.9,-9.9,16.2